Weather History for KSLN - October, 2013

Change the Weather History Date:

Thursday, October 17, 2013

  Actual Average Record
Temperature  
Mean Temperature 53 °F 57 °F  
Max Temperature 68 °F 69 °F 89 °F (1991)
Min Temperature 37 °F 46 °F 22 °F (1976)
Degree Days  
Heating Degree Days 12 9  
Month to date heating degree days 87 113  
Since 1 July heating degree days 99 165  
Cooling Degree Days 0 1  
Month to date cooling degree days 55 28  
Year to date cooling degree days 1750 1640  
Growing Degree Days 2 (Base 50)    
Moisture  
Dew Point 36 °F    
Average Humidity 57    
Maximum Humidity 85    
Minimum Humidity 29    
Precipitation  
Precipitation 0.00 in 0.08 in 1.28 in (1994)
Month to date precipitation 0.37 1.39  
Year to date precipitation 28.24 28.43  
Sea Level Pressure  
Sea Level Pressure 30.02 in    
Wind  
Wind Speed 9 mph (WNW)    
Max Wind Speed 21 mph    
Max Gust Speed 24 mph    
Visibility 10 miles    
Events      
T = Trace of Precipitation, MM = Missing Value Source: NWS Daily Summary

Daily Weather History Graph

Daily Weather History Graph

Search for Another Location

Airport or City:

Trip Planner

Search our weather history database for the weather conditions in past years. The results will help you decide how hot, cold, wet, or windy it might be!

Date:

Astronomy

Oct. 17, 2013 Rise Set
Actual Time 7:42 AM CDT 6:48 PM CDT
Civil Twilight 7:15 AM CDT 7:15 PM CDT
Nautical Twilight 6:44 AM CDT 7:46 PM CDT
Astronomical Twilight 6:13 AM CDT 8:17 PM CDT
Moon 6:03 PM CDT (10/17) 6:16 AM CDT (10/17)
Length of Visible Light 12h 00m
Length of Day
11h 06m
Waxing Gibbous, 98% of the Moon is Illuminated
Oct 17
Waxing Gibbous
Oct 18
Full
Oct 26
Last Quarter
Nov 3
New
Nov 9
First Quarter

Hourly Weather History & Observations

Time (CDT) Temp. Windchill Dew Point Humidity Pressure Visibility Wind Dir Wind Speed Gust Speed Precip Events Conditions
12:53 AM 37.9 °F 32.7 °F 34.0 °F 86% 30.03 in 10.0 mi South 6.9 mph - N/A   Clear
1:53 AM 37.0 °F 34.5 °F 34.0 °F 89% 30.02 in 10.0 mi SSW 3.5 mph - N/A   Clear
2:53 AM 39.0 °F - 35.1 °F 86% 30.01 in 10.0 mi Calm Calm - N/A   Clear
3:53 AM 37.0 °F 32.4 °F 33.1 °F 86% 30.00 in 10.0 mi SSW 5.8 mph - N/A   Clear
4:53 AM 41.0 °F 37.1 °F 36.0 °F 82% 30.00 in 10.0 mi SW 5.8 mph - N/A   Clear
5:53 AM 42.1 °F 37.1 °F 36.0 °F 79% 29.99 in 10.0 mi SSW 8.1 mph - N/A   Clear
6:53 AM 39.9 °F - 35.1 °F 83% 29.99 in 9.0 mi Calm Calm - N/A   Clear
7:53 AM 41.0 °F 38.0 °F 36.0 °F 82% 29.99 in 9.0 mi SW 4.6 mph - N/A   Clear
8:53 AM 45.0 °F 40.6 °F 37.9 °F 76% 30.01 in 9.0 mi WSW 8.1 mph - N/A   Clear
9:53 AM 50.0 °F - 39.0 °F 66% 30.02 in 10.0 mi West 9.2 mph - N/A   Clear
10:53 AM 55.0 °F - 39.0 °F 55% 30.02 in 10.0 mi WNW 6.9 mph - N/A   Clear
11:53 AM 61.0 °F - 37.9 °F 42% 30.02 in 10.0 mi WNW 10.4 mph - N/A   Clear
12:53 PM 63.0 °F - 37.9 °F 40% 30.00 in 10.0 mi West 9.2 mph - N/A   Clear
1:53 PM 64.9 °F - 35.1 °F 33% 29.99 in 10.0 mi WNW 12.7 mph - N/A   Clear
2:53 PM 66.9 °F - 33.1 °F 28% 29.97 in 10.0 mi NNW 13.8 mph 23.0 mph N/A   Clear
3:53 PM 66.9 °F - 35.1 °F 31% 29.96 in 10.0 mi NW 19.6 mph - N/A   Clear
4:53 PM 66.9 °F - 34.0 °F 30% 29.95 in 10.0 mi NW 15.0 mph 23.0 mph N/A   Clear
5:53 PM 64.0 °F - 35.1 °F 34% 29.97 in 10.0 mi NNW 15.0 mph - N/A   Clear
6:53 PM 59.0 °F - 37.0 °F 44% 30.00 in 10.0 mi NNW 10.4 mph - N/A   Clear
7:53 PM 54.0 °F - 39.0 °F 57% 30.04 in 10.0 mi North 15.0 mph - N/A   Clear
8:53 PM 51.1 °F - 37.9 °F 61% 30.07 in 10.0 mi North 11.5 mph - N/A   Clear
9:53 PM 48.0 °F - 37.0 °F 66% 30.10 in 10.0 mi NNW 10.4 mph - N/A   Clear
10:53 PM 46.0 °F 40.6 °F 36.0 °F 68% 30.11 in 10.0 mi North 11.5 mph - N/A   Clear
11:53 PM 45.0 °F - 35.1 °F 68% 30.12 in 10.0 mi Calm Calm - N/A   Clear